This is the latest recevied weather packets stored in our database for station/object KD5GAT-51. If no packets are shown the sender has not sent any weather packets the latest 1 day(s).
| Time | Temp. | Humidity | Pressure | Rain* | Wind** | Luminosity | Snow |
|---|---|---|---|---|---|---|---|
| 1777854334 | 26.11° C | 34% | 1018.8 hPa | - | - | - | - |
| 1777853434 | 26.11° C | 33% | 1018.9 hPa | - | - | - | - |
| 1777852533 | 27.78° C | 31% | 1019.1 hPa | - | - | - | - |
| 1777851633 | 28.33° C | 31% | 1019.1 hPa | - | - | - | - |
| 1777850733 | 28.89° C | 31% | 1019.4 hPa | - | - | - | - |
| 1777849833 | 28.89° C | 30% | 1019.4 hPa | - | - | - | - |
| 1777848933 | 28.89° C | 30% | 1019.4 hPa | - | - | - | - |
| 1777848032 | 28.89° C | 30% | 1019.5 hPa | - | - | - | - |
| 1777847132 | 29.44° C | 29% | 1019.7 hPa | - | - | - | - |
| 1777846232 | 29.44° C | 28% | 1020 hPa | - | - | - | - |
| 1777845340 | 29.44° C | 29% | 1020.2 hPa | - | - | - | - |
| 1777844440 | 28.33° C | 31% | 1020.7 hPa | - | - | - | - |
| 1777843539 | 28.89° C | 29% | 1020.7 hPa | - | - | - | - |
| 1777842639 | 29.44° C | 29% | 1021.1 hPa | - | - | - | - |
| 1777841739 | 28.89° C | 29% | 1021.4 hPa | - | - | - | - |
| 1777840839 | 28.89° C | 29% | 1021.9 hPa | - | - | - | - |
| 1777839939 | 28.33° C | 30% | 1022.2 hPa | - | - | - | - |
| 1777839039 | 28.89° C | 29% | 1022.2 hPa | - | - | - | - |
| 1777838138 | 28.89° C | 30% | 1022.6 hPa | - | - | - | - |
| 1777837238 | 28.33° C | 32% | 1022.8 hPa | - | - | - | - |
| 1777836338 | 27.22° C | 33% | 1022.7 hPa | - | - | - | - |
| 1777835438 | 27.78° C | 31% | 1023.2 hPa | - | - | - | - |
| 1777834538 | 27.22° C | 29% | 1023.2 hPa | - | - | - | - |
| 1777833638 | 27.78° C | 32% | 1023.7 hPa | - | - | - | - |
| 1777832737 | 27.78° C | 34% | 1023.9 hPa | - | - | - | - |
* Rain since midnight (hover to see other rain measurements)
** Current wind speed in m/s (hover to see current wind gust speed)